Plattsmouth, NE

8:57 PM CDT on June 27, 2017 (GMT -0500)
Plattsmouth Municipal

Weather History for KPMV - October, 2013

Change the Weather History Date:

Friday, October 25, 2013

  Actual Average (KOFF) Record (KOFF)
Temperature  
Mean Temperature 44 °F -  
Max Temperature 59 °F 58 °F 76 °F (2011)
Min Temperature 29 °F 40 °F 21 °F (2013)
Degree Days  
Heating Degree Days 21    
Moisture  
Dew Point 27 °F    
Average Humidity 54    
Maximum Humidity 77    
Minimum Humidity 32    
Precipitation  
Precipitation 0.00 in - - ()
Sea Level Pressure  
Sea Level Pressure 30.27 in    
Wind  
Wind Speed 10 mph (South)    
Max Wind Speed 22 mph    
Max Gust Speed 26 mph    
Visibility 10 miles    
Events      
Averages and records for this station are not official NWS values.
T = Trace of Precipitation, MM = Missing Value Source: NWS Daily Summary

Daily Weather History Graph

Daily Weather History Graph

Search for Another Location

Airport or City:

Trip Planner

Search our weather history database for the weather conditions in past years. The results will help you decide how hot, cold, wet, or windy it might be!

Date:

Astronomy

Oct. 25, 2013 Rise Set
Actual Time 7:46 AM CDT 6:28 PM CDT
Civil Twilight 7:18 AM CDT 6:56 PM CDT
Nautical Twilight 6:46 AM CDT 7:28 PM CDT
Astronomical Twilight 6:14 AM CDT 8:00 PM CDT
Moon 11:48 PM CDT (10/25) 1:28 PM CDT (10/25)
Length of Visible Light 11h 37m
Length of Day
10h 41m
Waning Gibbous, 62% of the Moon is Illuminated
Oct 25
Waning Gibbous
Oct 26
Last Quarter
Nov 3
New
Nov 9
First Quarter
Nov 17
Full

Hourly Weather History & Observations

Time (CDT) Temp. Windchill Dew Point Humidity Pressure Visibility Wind Dir Wind Speed Gust Speed Precip Events Conditions
12:15 AM 34.5 °F 29.4 °F 23.7 °F 65% 30.40 in 10.0 mi SSW 5.8 mph - N/A   Clear
12:35 AM 34.7 °F 28.1 °F 23.7 °F 64% 30.40 in 10.0 mi SSW 8.1 mph - N/A   Clear
12:55 AM 36.5 °F 29.7 °F 23.9 °F 60% 30.40 in 10.0 mi South 9.2 mph - N/A   Clear
1:15 AM 35.1 °F 28.6 °F 23.5 °F 63% 30.41 in 10.0 mi SSW 8.1 mph - N/A   Clear
1:35 AM 34.9 °F 28.3 °F 23.2 °F 62% 30.41 in 10.0 mi SSW 8.1 mph - N/A   Clear
1:55 AM 35.6 °F 28.6 °F 23.2 °F 61% 30.41 in 10.0 mi SSW 9.2 mph - N/A   Clear
2:15 AM 36.9 °F 30.1 °F 23.0 °F 57% 30.40 in 10.0 mi South 9.2 mph - N/A   Clear
2:35 AM 35.4 °F 29.7 °F 23.0 °F 61% 30.40 in 10.0 mi South 6.9 mph - N/A   Clear
2:55 AM 34.2 °F 28.2 °F 23.0 °F 64% 30.40 in 10.0 mi South 6.9 mph - N/A   Clear
3:15 AM 32.4 °F 25.3 °F 23.0 °F 68% 30.40 in 10.0 mi South 8.1 mph - N/A   Clear
3:35 AM 32.9 °F 26.7 °F 23.4 °F 68% 30.39 in 10.0 mi South 6.9 mph - N/A   Clear
3:55 AM 32.0 °F 26.4 °F 23.0 °F 69% 30.39 in 10.0 mi South 5.8 mph - N/A   Clear
4:15 AM 32.0 °F 26.4 °F 23.0 °F 69% 30.39 in 10.0 mi SSW 5.8 mph - N/A   Clear
4:35 AM 31.3 °F 24.7 °F 22.8 °F 71% 30.39 in 10.0 mi South 6.9 mph - N/A   Clear
4:55 AM 30.0 °F 24.1 °F 22.6 °F 74% 30.39 in 10.0 mi South 5.8 mph - N/A   Clear
5:15 AM 30.2 °F 24.3 °F 23.0 °F 75% 30.39 in 10.0 mi SSE 5.8 mph - N/A   Clear
5:35 AM 30.0 °F 24.1 °F 23.0 °F 75% 30.39 in 10.0 mi South 5.8 mph - N/A   Clear
5:55 AM 31.1 °F 26.4 °F 23.0 °F 72% 30.38 in 10.0 mi SSE 4.6 mph - N/A   Clear
6:15 AM 29.5 °F 22.5 °F 22.8 °F 76% 30.39 in 10.0 mi South 6.9 mph - N/A   Clear
6:35 AM 29.8 °F 23.0 °F 23.2 °F 76% 30.38 in 10.0 mi SSE 6.9 mph - N/A   Clear
6:55 AM 29.5 °F 25.9 °F 23.0 °F 77% 30.39 in 10.0 mi SSW 3.5 mph - N/A   Clear
7:15 AM 30.2 °F 24.3 °F 23.0 °F 75% 30.39 in 10.0 mi SSW 5.8 mph - N/A   Clear
7:35 AM 29.5 °F 24.5 °F 23.0 °F 77% 30.38 in 10.0 mi South 4.6 mph - N/A   Scattered Clouds
7:55 AM 31.8 °F 25.4 °F 24.4 °F 74% 30.38 in 10.0 mi South 6.9 mph - N/A   Mostly Cloudy
8:15 AM 33.4 °F 24.8 °F 25.3 °F 72% 30.36 in 10.0 mi South 11.5 mph - N/A   Overcast
8:35 AM 34.7 °F 26.9 °F 25.9 °F 70% 30.37 in 10.0 mi South 10.4 mph - N/A   Overcast
8:55 AM 34.9 °F 27.1 °F 26.1 °F 70% 30.38 in 10.0 mi South 10.4 mph - N/A   Overcast
9:15 AM 34.7 °F 26.9 °F 27.1 °F 74% 30.37 in 10.0 mi South 10.4 mph - N/A   Overcast
9:35 AM 37.6 °F 30.0 °F 28.0 °F 68% 30.37 in 10.0 mi South 11.5 mph - N/A   Mostly Cloudy
9:55 AM 39.9 °F 32.5 °F 28.8 °F 64% 30.36 in 10.0 mi SSW 12.7 mph - N/A   Mostly Cloudy
10:15 AM 43.2 °F 35.3 °F 28.9 °F 57% 30.36 in 10.0 mi SSW 17.3 mph 20.7 mph N/A   Scattered Clouds
10:35 AM 45.5 °F 37.8 °F 27.7 °F 50% 30.35 in 10.0 mi SSW 19.6 mph 24.2 mph N/A   Clear
10:55 AM 46.8 °F - 27.7 °F 47% 30.35 in 10.0 mi South 17.3 mph 24.2 mph N/A   Clear
11:15 AM 47.8 °F - 28.4 °F 47% 30.34 in 10.0 mi SSW 17.3 mph 26.5 mph N/A   Clear
11:35 AM 49.5 °F - 28.9 °F 45% 30.34 in 10.0 mi SSW 15.0 mph 24.2 mph N/A   Clear
11:55 AM 52.2 °F - 28.6 °F 40% 30.33 in 10.0 mi SSW 17.3 mph 21.9 mph N/A   Clear
12:15 PM 53.6 °F - 28.2 °F 38% 30.32 in 10.0 mi SSW 17.3 mph 20.7 mph N/A   Clear
12:35 PM 54.1 °F - 27.9 °F 36% 30.31 in 10.0 mi SSW 18.4 mph 23.0 mph N/A   Clear
12:55 PM 54.9 °F - 28.6 °F 37% 30.30 in 10.0 mi SSW 16.1 mph - N/A   Clear
1:15 PM 55.6 °F - 28.9 °F 36% 30.29 in 10.0 mi SSW 18.4 mph - N/A   Clear
1:35 PM 56.7 °F - 30.0 °F 36% 30.27 in 10.0 mi SSW 19.6 mph - N/A   Clear
1:55 PM 57.4 °F - 30.4 °F 36% 30.25 in 10.0 mi South 18.4 mph 23.0 mph N/A   Clear
2:15 PM 58.1 °F - 30.6 °F 35% 30.24 in 10.0 mi SSW 21.9 mph 25.3 mph N/A   Clear
2:35 PM 58.6 °F - 30.4 °F 34% 30.22 in 10.0 mi South 18.4 mph 25.3 mph N/A   Clear
2:55 PM 58.5 °F - 30.4 °F 34% 30.21 in 10.0 mi SSW 19.6 mph 24.2 mph N/A   Clear
3:15 PM 59.2 °F - 30.4 °F 34% 30.20 in 10.0 mi South 15.0 mph 21.9 mph N/A   Clear
3:35 PM 59.2 °F - 30.4 °F 34% 30.18 in 10.0 mi SSW 17.3 mph 23.0 mph N/A   Clear
3:55 PM 59.2 °F - 29.8 °F 33% 30.18 in 10.0 mi SSW 16.1 mph 23.0 mph N/A   Clear
4:15 PM 59.2 °F - 29.5 °F 32% 30.17 in 10.0 mi SSW 18.4 mph 25.3 mph N/A   Clear
4:35 PM 59.2 °F - 29.7 °F 33% 30.16 in 10.0 mi South 15.0 mph 20.7 mph N/A   Clear
4:55 PM 58.6 °F - 29.7 °F 33% 30.16 in 10.0 mi SSW 17.3 mph - N/A   Clear
5:15 PM 58.5 °F - 29.8 °F 34% 30.14 in 10.0 mi SSW 17.3 mph - N/A   Clear
5:35 PM 57.7 °F - 29.7 °F 34% 30.13 in 10.0 mi South 16.1 mph - N/A   Clear
5:55 PM 56.8 °F - 29.3 °F 35% 30.13 in 10.0 mi SSW 12.7 mph 19.6 mph N/A   Clear
6:15 PM 55.6 °F - 28.9 °F 36% 30.11 in 10.0 mi South 12.7 mph - N/A   Clear
6:35 PM 53.8 °F - 29.5 °F 39% 30.11 in 10.0 mi South 10.4 mph - N/A   Clear
6:55 PM 52.7 °F - 29.5 °F 41% 30.10 in 10.0 mi South 11.5 mph - N/A   Clear
7:15 PM 52.2 °F - 29.3 °F 41% 30.11 in 10.0 mi South 11.5 mph - N/A   Clear
7:35 PM 51.1 °F - 29.3 °F 43% 30.11 in 10.0 mi South 11.5 mph - N/A   Scattered Clouds
7:55 PM 49.5 °F - 29.3 °F 46% 30.11 in 10.0 mi South 11.5 mph - N/A   Clear
8:15 PM 50.2 °F - 28.4 °F 43% 30.10 in 10.0 mi South 12.7 mph 18.4 mph N/A   Clear
8:35 PM 49.3 °F - 28.9 °F 45% 30.10 in 10.0 mi South 11.5 mph - N/A   Clear
8:55 PM 47.8 °F - 28.9 °F 48% 30.11 in 10.0 mi South 6.9 mph - N/A   Clear
9:15 PM 45.5 °F 41.3 °F 29.3 °F 53% 30.10 in 10.0 mi South 8.1 mph - N/A   Clear
9:35 PM 44.4 °F 40.5 °F 28.9 °F 55% 30.10 in 10.0 mi SSW 6.9 mph - N/A   Clear
9:55 PM 45.1 °F 40.3 °F 28.8 °F 53% 30.10 in 10.0 mi SSW 9.2 mph - N/A   Clear
10:15 PM 46.4 °F 41.1 °F 28.6 °F 50% 30.09 in 10.0 mi SSW 11.5 mph - N/A   Clear
10:35 PM 46.0 °F 41.0 °F 28.9 °F 51% 30.09 in 10.0 mi SSW 10.4 mph - N/A   Clear
10:55 PM 45.5 °F 40.8 °F 28.8 °F 52% 30.09 in 10.0 mi South 9.2 mph - N/A   Clear
11:15 PM 42.8 °F 37.5 °F 29.3 °F 59% 30.08 in 10.0 mi South 9.2 mph - N/A   Clear
11:35 PM 41.2 °F 35.5 °F 29.3 °F 63% 30.07 in 10.0 mi South 9.2 mph - N/A   Clear
11:55 PM 41.0 °F 35.2 °F 29.3 °F 63% 30.07 in 10.0 mi South 9.2 mph - N/A   Clear